AKJ1736 VOBL-VABB

Flight info

Callsign AKJ1736
Flight time 1h 17m
Altitude 36000
Route VAGPU7B VAGPU Q8 AGELA MOLGO2A
Aircraft B38M/M-SDE1FGHILORVWXY/HB1

Departure

Time 2026-05-04 06:50
Airport Kempegowda International Airport Bengaluru (VOBL)

Arrival

Time 2026-05-04 08:08
Airport Chhatrapati Shivaji Maharaj International Airport (VABB)
Time Latitude Longitude Altitude Speed Heading
2026-05-04 05:51 13.20082 77.71661 3014 ft 0 kts 180°
2026-05-04 06:36 13.20183 77.71630 3021 ft 1 kts 90°
2026-05-04 06:41 13.20183 77.71640 3014 ft 3 kts 90°
2026-05-04 06:41 13.20183 77.71675 3014 ft 7 kts 90°
2026-05-04 06:41 13.20182 77.71740 3014 ft 11 kts 91°
2026-05-04 06:42 13.20181 77.71835 3014 ft 16 kts 90°
2026-05-04 06:42 13.20180 77.71961 3014 ft 20 kts 90°
2026-05-04 06:42 13.20179 77.72077 3014 ft 13 kts 90°
2026-05-04 06:44 13.20571 77.72286 3016 ft 5 kts
2026-05-04 06:44 13.20573 77.72286 3019 ft 0 kts
2026-05-04 06:48 13.20689 77.72217 3014 ft 0 kts 270°
2026-05-04 06:50 13.22034 77.66157 5152 ft 225 kts 303°
2026-05-04 06:51 13.22918 77.64778 5822 ft 242 kts 306°
2026-05-04 06:51 13.23863 77.63293 6497 ft 250 kts 304°
2026-05-04 06:51 13.24784 77.61768 7290 ft 255 kts 303°
2026-05-04 06:51 13.25708 77.60185 8225 ft 258 kts 302°
2026-05-04 06:52 13.26635 77.58566 9080 ft 272 kts 302°
2026-05-04 06:52 13.27616 77.56833 9740 ft 289 kts 301°
2026-05-04 06:52 13.28667 77.55018 10344 ft 306 kts 306°
2026-05-04 06:52 13.30231 77.53527 10328 ft 311 kts 332°
2026-05-04 06:53 13.32296 77.52878 10446 ft 314 kts 356°
2026-05-04 06:53 13.34461 77.53157 10561 ft 317 kts 19°
2026-05-04 06:53 13.36425 77.54203 10705 ft 320 kts 30°
2026-05-04 06:53 13.38358 77.55348 10839 ft 322 kts 30°
2026-05-04 06:54 13.40297 77.56503 10961 ft 323 kts 30°
2026-05-04 06:54 13.42238 77.57664 11006 ft 323 kts 30°
2026-05-04 06:54 13.44176 77.58828 11005 ft 323 kts 30°
2026-05-04 06:54 13.46116 77.59994 11005 ft 323 kts 30°
2026-05-04 06:55 13.48058 77.61161 11005 ft 323 kts 30°
2026-05-04 06:55 13.50013 77.62301 11029 ft 325 kts 24°
2026-05-04 06:55 13.52196 77.62802 11775 ft 324 kts
2026-05-04 06:55 13.54447 77.62471 12549 ft 333 kts 342°
2026-05-04 06:56 13.56593 77.61522 13360 ft 338 kts 335°
2026-05-04 06:57 13.72046 77.53758 18448 ft 366 kts 333°
2026-05-04 06:58 13.74336 77.52589 19041 ft 369 kts 333°
2026-05-04 06:58 13.76638 77.51414 19621 ft 371 kts 332°
2026-05-04 06:58 13.78964 77.50227 20197 ft 374 kts 332°
2026-05-04 06:58 13.81302 77.49033 20762 ft 377 kts 332°
2026-05-04 06:59 13.83661 77.47829 21313 ft 380 kts 332°
2026-05-04 06:59 13.86033 77.46617 21849 ft 382 kts 332°
2026-05-04 06:59 13.88425 77.45395 22390 ft 385 kts 332°
2026-05-04 06:59 13.90835 77.44163 22906 ft 388 kts 331°
2026-05-04 07:01 14.08158 77.35302 25827 ft 407 kts 331°
2026-05-04 07:01 14.10705 77.33997 26214 ft 410 kts 331°
2026-05-04 07:02 14.13266 77.32686 26605 ft 413 kts 331°
2026-05-04 07:02 14.15847 77.31364 27000 ft 415 kts 331°
2026-05-04 07:02 14.18443 77.30033 27371 ft 418 kts 331°
2026-05-04 07:02 14.21055 77.28694 27746 ft 421 kts 331°
2026-05-04 07:03 14.23686 77.27345 28118 ft 424 kts 332°
2026-05-04 07:03 14.26329 77.25990 28489 ft 426 kts 332°
2026-05-04 07:03 14.28994 77.24622 28838 ft 429 kts 332°
2026-05-04 07:03 14.31674 77.23247 29194 ft 431 kts 332°
2026-05-04 07:04 14.34369 77.21864 29559 ft 434 kts 332°
2026-05-04 07:04 14.37037 77.20495 29883 ft 437 kts 332°
2026-05-04 07:04 14.39762 77.19095 30189 ft 439 kts 332°
2026-05-04 07:04 14.42504 77.17686 30483 ft 441 kts 332°
2026-05-04 07:05 14.45255 77.16273 30783 ft 443 kts 332°
2026-05-04 07:05 14.48019 77.14852 31076 ft 445 kts 332°
2026-05-04 07:05 14.50791 77.13427 31360 ft 446 kts 332°
2026-05-04 07:05 14.53580 77.11993 31650 ft 448 kts 332°
2026-05-04 07:06 14.59199 77.09144 32213 ft 453 kts 336°
2026-05-04 07:06 14.62167 77.08023 32497 ft 455 kts 339°
2026-05-04 07:06 14.65155 77.06919 32756 ft 457 kts 339°
2026-05-04 07:07 14.68157 77.05820 33024 ft 459 kts 339°
2026-05-04 07:08 14.89427 76.98045 34864 ft 465 kts 339°
2026-05-04 07:09 14.92480 76.96928 35175 ft 464 kts 339°
2026-05-04 07:09 14.95522 76.95815 35475 ft 464 kts 339°
2026-05-04 07:09 14.97576 76.95063 35659 ft 463 kts 339°
2026-05-04 07:09 15.00619 76.93948 35896 ft 464 kts 339°
2026-05-04 07:10 15.03618 76.92849 35928 ft 463 kts 339°
2026-05-04 07:12 15.27761 76.83994 35923 ft 460 kts 339°
2026-05-04 07:12 15.33801 76.81775 35917 ft 460 kts 339°
2026-05-04 07:13 15.39837 76.79556 35909 ft 460 kts 339°
2026-05-04 07:13 15.45874 76.77337 35897 ft 460 kts 339°
2026-05-04 07:14 15.60952 76.71784 35899 ft 460 kts 339°
2026-05-04 07:15 15.66956 76.69487 35884 ft 458 kts 332°
2026-05-04 07:15 15.69595 76.67690 35891 ft 453 kts 315°
2026-05-04 07:15 15.71713 76.65289 35905 ft 451 kts 308°
2026-05-04 07:16 15.75686 76.60215 35900 ft 453 kts 307°
2026-05-04 07:16 15.79586 76.55085 35902 ft 453 kts 307°
2026-05-04 07:17 15.83464 76.49936 35902 ft 452 kts 306°
2026-05-04 07:17 15.87307 76.44825 35911 ft 452 kts 307°
2026-05-04 07:18 15.91176 76.39676 35911 ft 452 kts 306°
2026-05-04 07:18 15.95043 76.34527 35912 ft 452 kts 306°
2026-05-04 07:19 15.98909 76.29376 35914 ft 452 kts 306°
2026-05-04 07:19 16.02773 76.24224 35918 ft 452 kts 306°
2026-05-04 07:20 16.06634 76.19072 35917 ft 451 kts 306°
2026-05-04 07:20 16.10489 76.13925 35917 ft 451 kts 306°
2026-05-04 07:22 16.25874 75.93344 35920 ft 450 kts 306°
2026-05-04 07:23 16.29709 75.88205 35919 ft 449 kts 306°
2026-05-04 07:23 16.33541 75.83066 35915 ft 449 kts 306°
2026-05-04 07:24 16.37366 75.77932 35916 ft 448 kts 306°
2026-05-04 07:24 16.41159 75.72839 35917 ft 448 kts 306°
2026-05-04 07:26 16.56381 75.52361 35915 ft 446 kts 306°
2026-05-04 07:27 16.60176 75.47253 35916 ft 446 kts 307°
2026-05-04 07:27 16.64020 75.42187 35910 ft 445 kts 307°
2026-05-04 07:28 16.67858 75.37119 35914 ft 445 kts 307°
2026-05-04 07:28 16.71688 75.32058 35915 ft 444 kts 307°
2026-05-04 07:29 16.75515 75.26997 35914 ft 444 kts 307°
2026-05-04 07:29 16.79335 75.21942 35912 ft 444 kts 307°
2026-05-04 07:30 16.83157 75.16882 35909 ft 443 kts 307°
2026-05-04 07:30 16.86971 75.11827 35914 ft 443 kts 307°
2026-05-04 07:31 16.90785 75.06768 35917 ft 443 kts 307°
2026-05-04 07:33 17.06009 74.86542 35910 ft 442 kts 307°
2026-05-04 07:33 17.09805 74.81489 35910 ft 442 kts 307°
2026-05-04 07:34 17.13601 74.76433 35907 ft 442 kts 307°
2026-05-04 07:34 17.17398 74.71371 35914 ft 442 kts 307°
2026-05-04 07:35 17.21191 74.66311 35911 ft 442 kts 307°
2026-05-04 07:35 17.24979 74.61253 35912 ft 442 kts 307°
2026-05-04 07:36 17.28741 74.56228 35913 ft 441 kts 307°
2026-05-04 07:38 17.43855 74.35998 35922 ft 440 kts 307°
2026-05-04 07:38 17.47622 74.30946 35902 ft 439 kts 307°
2026-05-04 07:39 17.49489 74.28440 35266 ft 437 kts 306°
2026-05-04 07:39 17.51377 74.25906 34363 ft 445 kts 306°
2026-05-04 07:39 17.53289 74.23339 33567 ft 448 kts 306°
2026-05-04 07:39 17.55204 74.20767 32986 ft 445 kts 306°
2026-05-04 07:40 17.57091 74.18231 32527 ft 439 kts 306°
2026-05-04 07:40 17.58963 74.15715 32025 ft 435 kts 306°
2026-05-04 07:40 17.60818 74.13220 31496 ft 433 kts 306°
2026-05-04 07:40 17.62662 74.10740 30965 ft 430 kts 306°
2026-05-04 07:41 17.64493 74.08275 30458 ft 428 kts 307°
2026-05-04 07:41 17.66318 74.05819 29943 ft 425 kts 307°
2026-05-04 07:41 17.68129 74.03379 29354 ft 423 kts 306°
2026-05-04 07:41 17.69926 74.00957 28853 ft 419 kts 306°
2026-05-04 07:42 17.71704 73.98562 28379 ft 414 kts 306°
2026-05-04 07:42 17.73463 73.96190 27910 ft 410 kts 306°
2026-05-04 07:42 17.75208 73.93836 27454 ft 406 kts 306°
2026-05-04 07:42 17.76934 73.91507 26998 ft 403 kts 306°
2026-05-04 07:43 17.78647 73.89196 26549 ft 400 kts 306°
2026-05-04 07:43 17.80345 73.86902 26107 ft 397 kts 306°
2026-05-04 07:43 17.82032 73.84624 25669 ft 394 kts 306°
2026-05-04 07:43 17.83707 73.82361 25245 ft 391 kts 306°
2026-05-04 07:44 17.85368 73.80116 24813 ft 388 kts 306°
2026-05-04 07:44 17.87019 73.77885 24408 ft 386 kts 306°
2026-05-04 07:44 17.88663 73.75660 23989 ft 385 kts 306°
2026-05-04 07:44 17.90300 73.73445 23578 ft 383 kts 306°
2026-05-04 07:45 17.91933 73.71236 23091 ft 383 kts 306°
2026-05-04 07:45 17.93561 73.69032 22632 ft 380 kts 306°
2026-05-04 07:45 17.95174 73.66849 22224 ft 377 kts 306°
2026-05-04 07:45 17.96771 73.64684 21827 ft 373 kts 306°
2026-05-04 07:46 17.98353 73.62540 21446 ft 370 kts 306°
2026-05-04 07:46 17.99929 73.60404 21044 ft 368 kts 306°
2026-05-04 07:46 18.01491 73.58285 20648 ft 366 kts 307°
2026-05-04 07:46 18.03044 73.56179 20264 ft 363 kts 307°
2026-05-04 07:47 18.04587 73.54086 19876 ft 361 kts 307°
2026-05-04 07:47 18.06120 73.52005 19504 ft 359 kts 307°
2026-05-04 07:47 18.07643 73.49938 19118 ft 357 kts 307°
2026-05-04 07:49 18.19208 73.37127 16290 ft 346 kts 335°
2026-05-04 07:49 18.21402 73.36128 15934 ft 343 kts 335°
2026-05-04 07:49 18.23567 73.35152 15588 ft 334 kts 335°
2026-05-04 07:50 18.25678 73.34205 15241 ft 326 kts 335°
2026-05-04 07:50 18.27714 73.33294 14898 ft 319 kts 335°
2026-05-04 07:50 18.29734 73.32390 14568 ft 312 kts 335°
2026-05-04 07:50 18.31716 73.31504 14244 ft 306 kts 335°
2026-05-04 07:51 18.33655 73.30636 13921 ft 300 kts 335°
2026-05-04 07:51 18.35558 73.29785 13597 ft 295 kts 335°
2026-05-04 07:51 18.37459 73.28934 13242 ft 300 kts 335°
2026-05-04 07:51 18.39390 73.28070 12893 ft 303 kts 335°
2026-05-04 07:52 18.41329 73.27201 13115 ft 302 kts 336°
2026-05-04 07:52 18.43262 73.26336 12645 ft 303 kts 336°
2026-05-04 07:52 18.45201 73.25467 12125 ft 302 kts 336°
2026-05-04 07:52 18.47125 73.24606 11718 ft 298 kts 336°
2026-05-04 07:53 18.49013 73.23759 11342 ft 292 kts 336°
2026-05-04 07:54 18.61548 73.18137 9498 ft 276 kts 336°
2026-05-04 07:55 18.63308 73.17347 9210 ft 274 kts 336°
2026-05-04 07:55 18.65033 73.16572 9085 ft 266 kts 336°
2026-05-04 07:55 18.66758 73.15929 8924 ft 263 kts 351°
2026-05-04 07:55 18.68577 73.15843 8698 ft 262 kts 358°
2026-05-04 07:56 18.69787 73.15806 8549 ft 262 kts 357°
2026-05-04 07:56 18.72215 73.15732 8259 ft 260 kts 358°
2026-05-04 07:56 18.74017 73.15682 8032 ft 259 kts 358°
2026-05-04 07:56 18.75816 73.15633 7825 ft 258 kts 358°
2026-05-04 07:57 18.77005 73.15601 7682 ft 258 kts 358°
2026-05-04 07:57 18.78795 73.15554 7462 ft 257 kts 358°
2026-05-04 07:57 18.80576 73.15507 7253 ft 256 kts 358°
2026-05-04 07:57 18.82353 73.15460 7034 ft 255 kts 358°
2026-05-04 07:58 18.84128 73.15414 6818 ft 255 kts 358°
2026-05-04 07:58 18.85895 73.15368 6607 ft 253 kts 358°
2026-05-04 07:58 18.87654 73.15322 6391 ft 252 kts 358°
2026-05-04 07:58 18.89406 73.15276 6181 ft 252 kts 358°
2026-05-04 07:59 18.91154 73.15231 5973 ft 251 kts 358°
2026-05-04 07:59 18.92876 73.15022 5723 ft 248 kts 340°
2026-05-04 07:59 18.94433 73.14278 5504 ft 243 kts 334°
2026-05-04 07:59 18.95933 73.13532 5304 ft 234 kts 334°
2026-05-04 08:00 18.97373 73.12808 5107 ft 225 kts 333°
2026-05-04 08:00 18.98758 73.12110 4920 ft 218 kts 333°
2026-05-04 08:00 19.00128 73.11415 4742 ft 219 kts 333°
2026-05-04 08:02 19.08766 73.06502 2847 ft 191 kts 295°
2026-05-04 08:02 19.09055 73.05514 2844 ft 190 kts 277°
2026-05-04 08:02 19.09123 73.04131 2978 ft 185 kts 269°
2026-05-04 08:03 19.09100 73.02841 2853 ft 167 kts 269°
2026-05-04 08:03 19.09080 73.01686 2666 ft 150 kts 269°
2026-05-04 08:03 19.09063 73.00600 2458 ft 146 kts 269°
2026-05-04 08:03 19.09047 72.99526 2245 ft 146 kts 269°
2026-05-04 08:04 19.09033 72.98458 2050 ft 145 kts 269°
2026-05-04 08:04 19.09018 72.97390 1853 ft 145 kts 269°
2026-05-04 08:04 19.09003 72.96326 1657 ft 145 kts 269°
2026-05-04 08:04 19.08989 72.95262 1467 ft 145 kts 269°
2026-05-04 08:05 19.08974 72.94202 1274 ft 144 kts 269°
2026-05-04 08:05 19.08959 72.93143 1081 ft 144 kts 269°
2026-05-04 08:05 19.08945 72.92090 890 ft 143 kts 269°
2026-05-04 08:05 19.08930 72.91036 702 ft 143 kts 270°
2026-05-04 08:06 19.08915 72.89988 512 ft 142 kts 269°
2026-05-04 08:06 19.08903 72.88938 322 ft 144 kts 269°
2026-05-04 08:06 19.08874 72.87879 133 ft 144 kts 270°
2026-05-04 08:06 19.08873 72.86864 52 ft 121 kts 270°
2026-05-04 08:08 19.08977 72.85788 49 ft 6 kts 301°
2026-05-04 08:08 19.09005 72.85738 49 ft 10 kts 301°
2026-05-04 08:10 19.09100 72.85559 46 ft 5 kts 44°
2026-05-04 08:11 19.09141 72.85563 52 ft 7 kts 359°
2026-05-04 08:11 19.09159 72.85563 49 ft 0 kts 359°